GW2598 Weather Reports


Display with metric or nautical units.
time (UTC)temp
F
wind
direction
speed
MPH
gust
MPH
rain 1hr
in
rain 24hr
in
rain mn
in
humidity
%
barometer
mb
20260510220053 67 244 3.0 13.0 0.00 0.11 0.00 62 1012.2
20260510214553 65 336 4.0 10.0 0.00 0.18 0.00 74 1012.2
20260510213055 65 0 1.0 5.0 0.00 0.18 0.00 83 1012.2
20260510211554 65 218 0.0 3.0 0.00 0.18 0.00 81 1012.0
20260510210109 66 184 2.0 5.0 0.00 0.18 0.00 77 1011.9
20260510204553 68 234 1.0 6.0 0.00 0.23 0.00 75 1011.8
20260510203052 68 169 1.0 4.0 0.00 0.23 0.00 71 1011.6
20260510201553 69 0 1.0 3.0 0.00 0.23 0.00 68 1011.6
20260510200054 69 0 1.0 5.0 0.00 0.23 0.00 68 1011.8
20260510194553 69 261 2.0 8.0 0.00 0.28 0.00 68 1011.7
20260510193106 68 185 4.0 8.0 0.00 0.28 0.00 70 1011.7
20260510191559 67 171 6.0 11.0 0.00 0.28 0.00 71 1012.1
20260510190056 67 184 3.0 10.0 0.00 0.28 0.00 73 1012.0
20260510184553 66 143 2.0 10.0 0.00 0.43 0.00 75 1012.3
20260510183054 67 197 4.0 9.0 0.00 0.43 0.00 74 1012.2
20260510181552 67 173 2.0 7.0 0.00 0.43 0.00 74 1012.2
20260510174552 66 153 2.0 7.0 0.00 0.43 0.00 76 1012.2
20260510173052 66 153 3.0 7.0 0.00 0.43 0.00 76 1012.2
20260510171554 65 198 2.0 6.0 0.00 0.43 0.00 77 1012.3
20260510164558 62 220 2.0 7.0 0.00 0.43 0.00 84 1012.5
20260510163056 61 131 2.0 7.0 0.00 0.43 0.00 84 1012.8
20260510161555 59 129 2.0 7.0 0.00 0.43 0.00 88 1012.4
20260510160100 58 0 2.0 7.0 0.00 0.43 0.00 91 1012.6
20260510154603 57 91 2.0 7.0 0.00 0.43 0.00 94 1012.8
20260510153053 56 204 1.0 5.0 0.00 0.43 0.00 96 1013.1
20260510151550 55 245 1.0 7.0 0.00 0.43 0.00 96 1013.2
20260510150052 54 229 1.0 5.0 0.00 0.43 0.00 96 1013.1
20260510144554 54 187 2.0 7.0 0.00 0.43 0.00 96 1013.2
20260510143057 53 213 0.0 4.0 0.00 0.43 0.00 97 1013.1
20260510141553 53 0 2.0 5.0 0.00 0.43 0.00 97 1012.8
20260510140058 52 0 0.0 5.0 0.00 0.43 0.00 97 1012.6
20260510134557 52 0 2.0 5.0 0.00 0.43 0.00 97 1012.6
20260510133059 52 127 2.0 4.0 0.00 0.43 0.00 97 1012.7
20260510131600 52 139 2.0 7.0 0.00 0.43 0.00 97 1012.5
20260510130054 52 0 2.0 4.0 0.00 0.43 0.00 97 1012.4
20260510124610 51 136 0.0 5.0 0.00 0.43 0.00 97 1012.4
20260510123055 51 119 1.0 4.0 0.00 0.43 0.00 97 1012.1
20260510121553 51 88 2.0 4.0 0.00 0.43 0.00 97 1011.8
20260510120058 51 59 1.0 5.0 0.00 0.43 0.00 97 1011.7
20260510114600 51 147 3.0 9.0 0.00 0.43 0.00 96 1011.7
20260510113107 51 151 3.0 9.0 0.00 0.43 0.00 97 1011.6
20260510111617 51 133 2.0 6.0 0.00 0.43 0.00 97 1011.3
20260510110056 51 163 3.0 7.0 0.00 0.43 0.00 96 1011.2
20260510104608 51 0 1.0 7.0 0.00 0.43 0.00 96 1011.3
20260510103058 51 173 1.0 5.0 0.00 0.43 0.00 97 1011.2
20260510101556 51 180 2.0 5.0 0.00 0.43 0.00 97 1011.3
20260510100059 51 167 1.0 5.0 0.00 0.43 0.00 97 1011.4
20260510094557 51 159 1.0 5.0 0.00 0.43 0.00 96 1011.5
20260510093057 50 0 0.0 0.0 0.00 0.43 0.00 97 1011.7
20260510091559 50 0 0.0 0.0 0.00 0.43 0.00 97 1011.6
20260510090119 50 40 2.0 5.0 0.00 0.43 0.00 96 1011.7
20260510084602 51 349 2.0 9.0 0.00 0.43 0.00 96 1011.7
20260510083109 51 0 2.0 9.0 0.00 0.43 0.00 96 1011.4
20260510081553 51 344 2.0 5.0 0.00 0.43 0.00 96 1011.5
20260510080059 51 57 0.0 6.0 0.00 0.43 0.00 96 1010.7
20260510074556 51 0 2.0 5.0 0.00 0.43 0.00 96 1010.7
20260510073057 51 0 0.0 2.0 0.00 0.43 0.00 96 1010.8
20260510071555 51 0 0.0 2.0 0.00 0.43 0.00 96 1010.9
20260510070107 51 0 0.0 2.0 0.00 0.43 0.00 96 1010.9
20260510064608 51 84 3.0 5.0 0.00 0.43 0.00 96 1010.8
20260510063054 51 29 3.0 5.0 0.00 0.43 0.00 96 1010.6
20260510061555 51 0 0.0 5.0 0.00 0.43 0.00 96 1010.5
20260510060054 51 90 1.0 4.0 0.00 0.43 0.00 96 1010.5
20260510054555 51 150 2.0 6.0 0.00 0.43 0.00 96 1010.5
20260510053055 51 0 0.0 4.0 0.00 0.43 0.00 96 1010.4
20260510051605 52 0 1.0 4.0 0.00 0.43 0.00 96 1010.7
20260510050129 52 0 0.0 2.0 0.00 0.43 0.00 96 1010.8
20260510044607 52 0 0.0 2.0 0.00 0.43 0.00 96 1010.7
20260510043054 52 168 1.0 3.0 0.00 0.43 0.00 96 1010.8
20260510041606 52 0 0.0 2.0 0.00 0.43 0.00 96 1010.8
20260510040057 52 0 0.0 0.0 0.00 0.43 0.00 96 1010.6
20260510034602 51 0 0.0 0.0 0.00 0.43 0.43 96 1010.5
20260510033057 51 0 0.0 0.0 0.00 0.43 0.43 96 1010.3
20260510031602 50 0 0.0 0.0 0.00 0.43 0.43 96 1010.4
20260510030105 50 0 0.0 0.0 0.00 0.43 0.43 95 1010.3
20260510024555 50 0 0.0 0.0 0.00 0.43 0.43 95 1010.4
20260510023056 50 0 0.0 0.0 0.00 0.43 0.43 95 1010.6
20260510021552 50 0 0.0 0.0 0.00 0.43 0.43 95 1010.6
20260510020058 51 0 0.0 0.0 0.00 0.43 0.43 95 1010.5
20260510014555 51 0 0.0 0.0 0.00 0.43 0.43 95 1010.6
20260510013100 51 0 0.0 0.0 0.00 0.43 0.43 94 1010.4
20260510011554 52 0 0.0 0.0 0.00 0.43 0.43 94 1010.1
20260510010054 52 0 0.0 0.0 0.00 0.43 0.43 94 1009.9
20260510004555 53 0 0.0 0.0 0.00 0.43 0.43 94 1010.1
20260510003059 53 0 0.0 1.0 0.00 0.43 0.43 94 1009.9
20260510001552 54 0 0.0 3.0 0.01 0.43 0.43 94 1009.9
20260510000058 54 0 0.0 7.0 0.01 0.43 0.43 94 1009.7
20260509234605 54 144 1.0 7.0 0.01 0.43 0.43 94 1009.7
20260509233056 54 132 0.0 3.0 0.01 0.43 0.43 94 1009.8
20260509231611 54 0 0.0 0.0 0.07 0.42 0.42 94 1010.1
20260509230104 54 159 2.0 4.0 0.10 0.42 0.42 94 1010.0
20260509224557 55 0 2.0 5.0 0.15 0.42 0.42 94 1009.9
20260509223051 55 159 3.0 9.0 0.16 0.42 0.42 94 1009.7
20260509221557 55 0 0.0 3.0 0.09 0.35 0.35 94 1011.0